星链-11293 (STARLINK-11293)

导读

STARLINK-11293是美国SpaceX公司星链星座的V2M型商业通信卫星,于2024年9月25日由猎鹰9号火箭从美国西部试验靶场发射升空,进入近地点约360公里的近地轨道运行。 卫星质量约730千克,负责提供全球高速低延迟卫星互联网服务,填补偏远地区网络覆盖空白,目前已正式投入运营。作为星链大规模组网计划的一员,它为推进全球互联、缩小数字鸿沟发挥了作用,但其部署也引发了对太空资源占用的争议。

基本信息
目录编号:
61249
目录名称:
STARLINK-11293
国际标识:
2024-175G
轨道中心:
EARTH
卫星名称:
星链-11293
卫星全名:
星链-11293 (STARLINK-11293)
卫星状态:
在轨 (已飞行716 天)
发射日期:
2024-09-25 UTC
国别 :
美国 (US)
星等 :
--
该卫星已列入 空间交会检测服务 Space Conjunction Data Service (SCDS) ,当前飞行风险评估等级: 无高风险
轨道信息
数据来源 国际轨道数据 AOE轨道数据
星历时间 2026-09-11T15:17:51+0800
10小时前
查看轨道信息
2026-09-09T22:00:00+0800
2天前
查看轨道信息
半长轴 6737.871km 6737.881km
偏心率 0.0001037 0.000081
轨道倾角 53.161° 53.158°
近地点辐角 69.864° 58.364°
升交点赤经 220.938° 229.425°
平近点角 290.249° 292.355°
近地点 359.035km 359.198km
远地点 360.433km 360.29km
周期 91.737分钟 91.737分钟
每日圈数 15.697077 15.697043
详细信息
固有亮度:
5
最大亮度:
2.5
卫星平台:
Starlink V1.0
覆盖范围:
全球
运营商:
太空探索技术公司
运营商所在国:
美国
制造商(研发单位):
太空探索技术公司
制造商所在国:
美国
使用方式:
暂无
卫星简介
Starlink 计划是 SpaceX 推出的全球卫星互联网项目,通过发射低轨道卫星,为全球尤其是偏远地区提供高速、低延迟的互联网服务。自 2019 年起,Starlink 已部署数千颗卫星,旨在缩小全球数字鸿沟,推动互联网普及。该项目还为军事、航空等行业提供通信支持,带来广泛经济效益。
2D轨道图
3D轨道图
轨道高度分析图
轨道倾角分析图
轨道综合分析图
查看轨道综合分析图
交会数据列表
事件ID 空间交会对象 最接近时刻(TCA) 交会距离 交会风险概率(CRP) 交会风险指数(CRI) 操作
CDM_260912-145204-323606-124922
LKW-4 (43236)
2026-09-12T
14:52:47+0000
0.789 km
远距离
5.7684E-5 中风险 0.7
与全量物体交会距离演化趋势
与全量物体交会风险概率演化趋势